Location: Observatoire
(46.1952°N, 5.3391°E)
Time: 03:22:41
(UTC+01:00)

Altair - Pass Details

Date: 19 February 2026
Orbit: 1502 x 1682 km, 47.2° (Epoch: 13 March)

Event Time Altitude Azimuth Distance (km) Brightness Sun altitude
Rises 05:34:40 0° 240° (WSW) 4,627 - -21.5°
Reaches altitude 10° 05:37:40 10° 238° (WSW) 3,653 - -21.0°
Exits shadow 05:40:42 24° 235° (SW) 2,714 8.3 -20.5°
Maximum altitude 05:46:48 74° 156° (SSE) 1,582 7.5 -19.5°
Drops below altitude 10° 05:56:14 10° 74° (ENE) 3,762 10.7 -17.8°
Sets 05:59:22 0° 73° (ENE) 4,771 11.6 -17.3°
